Location: Unspecified
(0.0000°N, 0.0000°E)
Time: 07:02:04
(UTC+00:00)

A-11 Canister half - Visible Passes

Search period start: 21 October 2014 00:00
Search period end: 31 October 2014 00:00
Orbit: 1525 x 1685 km, 47.3° (Epoch: 18 October)

Date Brightness Start Highest point End Pass type
(mag) Time Alt. Az. Time Alt. Az. Time Alt. Az.
21 Oct 8.9 19:32:59 10° NW 19:42:28 80° NE 19:47:03 37° SE visible
21 Oct 10.8 21:40:53 10° W 21:45:35 20° WSW 21:45:35 20° WSW visible
22 Oct 8.9 19:11:30 10° NNW 19:20:56 75° NE 19:29:37 14° SE visible
22 Oct 10.7 21:19:00 10° W 21:26:04 23° SW 21:28:14 21° SSW visible
23 Oct 8.9 18:50:02 10° NNW 18:59:24 70° NE 19:09:07 10° SE visible
23 Oct 10.6 20:57:09 10° W 21:04:29 25° SW 21:12:03 10° S visible
24 Oct 9.0 18:28:35 10° NNW 18:37:53 65° NE 18:47:30 10° SE visible
24 Oct 10.6 20:35:20 10° W 20:42:54 26° SW 20:50:43 10° S visible
25 Oct 11.1 05:16:56 10° S 05:25:16 29° SE 05:33:21 10° ENE visible
25 Oct 9.1 18:07:09 10° NNW 18:16:22 61° NE 18:25:52 10° SE visible
25 Oct 10.6 20:13:33 10° WNW 20:21:20 28° SW 20:29:23 10° S visible
26 Oct 11.1 04:55:35 10° S 05:03:41 27° SE 05:11:33 10° ENE visible
26 Oct 10.5 19:51:48 10° WNW 19:59:46 30° SW 20:08:01 10° S visible
27 Oct 11.1 04:34:15 10° S 04:42:06 25° SE 04:49:44 10° E visible
27 Oct 10.5 19:30:03 10° WNW 19:38:12 33° SW 19:46:39 10° SSE visible
28 Oct 11.2 04:12:57 10° S 04:20:30 24° SE 04:27:52 10° E visible
28 Oct 10.4 19:08:21 10° WNW 19:16:39 35° SW 19:25:16 10° SSE visible
29 Oct 11.2 03:51:40 10° S 03:58:54 22° SE 04:05:59 10° E visible
29 Oct 10.4 18:46:39 10° WNW 18:55:06 38° SW 19:03:52 10° SSE visible
30 Oct 11.2 03:30:25 10° S 03:37:18 20° SE 03:44:03 10° E visible
30 Oct 10.4 18:24:58 10° WNW 18:33:33 40° SW 18:42:27 10° SSE visible
